Regional Weather Roundup
Issued by NWS

Home | Current Version | Previous Version | Text Only | Print | Product List | Glossary On
Versions: 1 2 3 4 5 6 7 8 9 10 11 12 13 14 15 16 17 18 19 20 21 22 23 24 25 26 27 28 29 30 31 32 33 34 35 36 37 38 39 40 41 42 43 44 45 46 47 48 49 50
000
ASUS43 KFSD 250210
RWRSD

WEATHER ROUNDUP FOR SOUTH DAKOTA
NATIONAL WEATHER SERVICE SIOUX FALLS SD
900 PM CDT THU MAY 24 2018

NOTE: "FAIR" INDICATES FEW OR NO CLOUDS BELOW 12,000 FEET WITH NO
SIGNIFICANT WEATHER AND/OR OBSTRUCTIONS TO VISIBILITY.


SDZ001>005-009-010-012>017-250300-
NORTHWEST AND NORTH CENTRAL SOUTH DAKOTA

CITY           SKY/WX    TMP DP  RH WIND       PRES   REMARKS
BUFFALO          N/A     74  54  49 W8        29.81S
FAITH            N/A     74  61  63 S3        29.85S
MOBRIDGE       CLEAR     77  60  55 SW6       29.78S
$$

SDZ012>016-024>037-041>051-057-063-072>074-250300-
SOUTHWEST AND SOUTH CENTRAL SOUTH DAKOTA

CITY           SKY/WX    TMP DP  RH WIND       PRES   REMARKS
RAPID CTY ARPT CLEAR     70  61  73 E5        29.91S
PIERRE         CLEAR     75  60  59 NW3       29.83R
CUSTER         CLEAR     66  44  45 SW3       30.05S
ELLSWORTH AFB  CLEAR     73  59  61 SE6       29.91R
PHILIP         CLEAR     75  62  64 NE5       29.85S
PINE RIDGE     CLEAR     75  57  53 CALM      29.93S
SPEARFISH      FAIR      66  57  72 S7        29.95R
WINNER         FAIR      74  57  55 S13       29.86S
$$

SDZ004>011-016>023-039-040-250300-
NORTHEAST SOUTH DAKOTA

CITY           SKY/WX    TMP DP  RH WIND       PRES   REMARKS
ABERDEEN       MOCLDY    79  57  46 W8        29.77R
WATERTOWN      CLOUDY    76  60  57 SW14      29.81F
BROOKINGS      CLOUDY    75  64  68 S8        29.85S
SISSETON         N/A     79  65  62 SW10      29.74F
$$

SDZ017-020-022-023-036>040-048>070-250300-
SOUTHEAST SOUTH DAKOTA

CITY           SKY/WX    TMP DP  RH WIND       PRES   REMARKS
SIOUX FALLS    CLOUDY    70  61  73 S6        29.83F
HURON          PTCLDY    76  64  66 S8        29.81R
CHAMBERLAIN    CLOUDY    73  68  83 S5        29.84S
MITCHELL       CLEAR     74  58  57 W6        29.83S
YANKTON        CLOUDY    74  62  66 SE7       29.85F
$$

ABBREVIATIONS USED IN REMARKS
   TC - TEMPERATURE IN CELSIUS
  WCI - WIND CHILL INDEX
   HX - HEAT INDEX
  VSB - VISIBILITY




USA.gov is the U.S. government's official web portal to all federal, state and local government web resources and services.